www.pogodaiklimat.ru
ПОГОДА в Кочис Каунти
Время
и дата
11:56 04.07
12:56 04.07
13:56 04.07
14:56 04.07
15:56 04.07
16:56 04.07
17:56 04.07
18:56 04.07
19:56 04.07
20:56 04.07
21:56 04.07
22:56 04.07
23:56 04.07
00:56 05.07
01:56 05.07
02:56 05.07
03:56 05.07
04:56 05.07
05:56 05.07
06:56 05.07
07:56 05.07
08:56 05.07
09:56 05.07
10:56 05.07
11:56 05.07
12:56 05.07
13:56 05.07
14:56 05.07
15:56 05.07
16:56 05.07
17:56 05.07
18:56 05.07
19:56 05.07
20:56 05.07
21:56 05.07
22:56 05.07
23:56 05.07
00:56 06.07
01:56 06.07
02:56 06.07
03:56 06.07
04:56 06.07
05:56 06.07
06:56 06.07
07:56 06.07
08:56 06.07
09:56 06.07
10:56 06.07
Ветер
(напр.,м/с)
Видим. Явления Облачность Т
(С)
Тd
(С)
f
(%)
Тe
(С)
Тes
(С)
Комфортность P
(гПа)
Po
(гПа)
Тmin
(С)
Tmax
(С)
R
(мм)
R24
(мм)
S
(см)
З 1 16 км 8/0 2700 м
[Ac]
+26.7 +14.4 47 +29 +36 жарко 1011.0 856.2
нст 1 16 км 5/0 2100 м
[Ac]
+28.3 +15.0 44 +31 +45 душно 1010.4 855.6
СЗ 1 16 км 8/5 1380 м
[Ac]
+23.3 +14.4 57 +27 +33 душно 1011.5 856.2 1.5
ЮЗ 1 16 км слабый дождь 10/5 1650 м
[Ac]
+24.4 +15.6 58 +27 +31 жарко 1011.1 855.9
З 1 16 км 2/0 3600 м
[Ac]
+23.3 +17.8 71 +29 +39 душно 1011.1 855.9
З 1 16 км ясно +25.6 +16.7 58 +29 +37 душно 1010.2 855.3 +19.4 +28.3 2.8
З 1 16 км ясно +25.6 +16.1 56 +29 +34 душно 1010.0 855.3
ЮЗ 1 16 км ясно +25.0 +16.1 58 +28 +30 жарко 1010.5 855.6
ЮЗ 1 16 км ясно +23.3 +16.7 66 +28 +28 душно 1010.3 855.6
ЮЗ 1 16 км ясно +22.8 +16.7 68 +27 +27 душно 1010.8 855.9
ЮЗ 1 16 км ясно +22.2 +15.6 66 +26 +26 душно 1011.3 856.5
С 1 16 км 8/8 1800 м +21.1 +16.1 73 +24 +24 комфорт 1011.7 856.8 +20.6 +26.1
З 1 16 км ясно +20.6 +16.7 78 +25 +25 комфорт 1011.5 856.8
СЗ 1 16 км 8/0 2400 м
[Ac]
+20.0 +16.7 81 +23 +23 комфорт 1011.1 856.5
штиль 0 16 км ясно +20.6 +15.6 73 +23 +23 комфорт 1011.4 856.2
ЮЗ 1 16 км ясно +20.6 +15.0 70 +24 +24 комфорт 1011.0 856.2
штиль 0 16 км ясно +20.0 +14.4 70 +22 +22 комфорт 1011.5 856.2
штиль 0 16 км ясно +19.4 +15.0 76 +21 +21 комфорт 1011.6 856.5 +18.3 +21.7 2.8
штиль 0 16 км ясно +20.6 +14.4 68 +23 +23 комфорт 1011.6 856.8
штиль 0 16 км ясно +22.2 +13.3 57 +25 +26 комфорт 1011.6 856.8
штиль 0 16 км ясно +25.0 +12.2 45 +27 +30 жарко 1011.6 857.0
16 км ясно +25.6 +14.4 50 +28 +36 жарко 1011.5 856.8
Ю 2
{4}
16 км ясно +27.8 +10.6 34 +28 +34 жарко 1011.3 856.8
ЮЗ 3
{4}
16 км ясно +28.9 +10.0 31 +29 +33 жарко 1011.4 856.8 +18.3 +28.9
ЮЗ 3
{4}
16 км ясно +30.6 +7.2 23 +29 +37 жарко 1011.0 856.5
16 км ясно +30.6 +8.3 25 +30 +59 опасность
солнечного
удара
1010.6 856.2
З 2
{4}
16 км 2/0 2550 м
[Ac]
+29.4 +8.9 28 +29 +41 жарко 1010.3 855.9
ЮЗ 4
{5}
16 км ясно +31.1 +6.7 22 +30 +33 жарко 1009.6 855.6
ЮЗ 2
{5}
16 км ясно +31.1 +4.4 18 +29 +37 жарко 1009.1 855.1
ЮЗ 3
{5}
16 км ясно +31.1 +2.8 17 +29 +31 жарко 1008.8 854.8 +28.3 +31.7
ЮЗ 1 16 км ясно +29.4 +3.9 20 +28 +32 жарко 1008.8 854.8
ЮЗ 2 16 км ясно +28.3 +4.4 22 +27 +28 жарко 1009.1 855.1
ЮЗ 2 16 км ясно +25.6 +7.2 31 +26 +26 жарко 1009.7 855.6
ЮЗ 2 16 км ясно +24.4 +7.8 35 +25 +25 комфорт 1010.3 855.9
ЮЗ 2 16 км ясно +24.4 +7.8 35 +25 +25 комфорт 1010.8 856.5
ЮЗ 2 16 км ясно +23.3 +7.8 37 +24 +24 комфорт 1011.0 856.8 +22.8 +31.1
ЮЗ 2 16 км ясно +22.2 +8.9 43 +24 +24 комфорт 1010.6 856.5
З 2 16 км ясно +18.9 +10.6 59 +20 +20 1010.9 856.5
З 3 16 км ясно +20.0 +10.0 53 +21 +21 комфорт 1010.9 856.5
З 2 16 км ясно +18.9 +10.0 56 +19 +19 1010.9 856.5
З 1 16 км ясно +17.8 +9.4 58 +18 +18 1011.5 856.8
З 1 16 км ясно +17.8 +9.4 58 +18 +18 1011.8 857.0 +17.8 +23.3
ЮЗ 1 16 км ясно +18.3 +10.0 58 +19 +19 1012.4 857.3
штиль 0 16 км ясно +20.6 +11.1 54 +22 +23 комфорт 1012.8 857.9
СВ 1 16 км ясно +25.0 +10.6 40 +26 +29 жарко 1012.9 858.2
С 1 16 км ясно +26.7 +8.9 33 +27 +33 жарко 1012.7 857.9
С 1 16 км ясно +28.3 +9.4 31 +28 +38 жарко 1012.2 857.9
В 1 16 км ясно +28.9 +8.9 29 +29 +42 жарко 1012.1 857.6 +17.2 +29.4
Местоположение метеостанции Pioneer Airfield: широта 31.6072 долгота -110.4281 высота над уровнем моря 1453 м.
В архиве по умолчанию представлена погода в Кочис Каунти за последние 1-2 суток. Обновление информации о фактической погоде в базе происходит ежечасно! Архивные данные за месяц целиком и за предыдущие месяцы Вы можете получить, выбрав интересующий диапазон дат из раскрывающегося списка и нажав кнопку "Ввод!".
Внимание! Архив погоды МЕТАР в базе сайта по станциям, не включенным в климатический монитор, хранится не более 60 дней. Нет смысла пытаться выбрать более раннюю дату.
*Определитесь, кто Вы:
Внимание! Время в таблицах - местное (без учета летнего времени). Для получения всемирного времени необходимо вычесть поправку, которая равна -7 ч.
Смотрите также архив погоды в соседних городах и на ближайших метеорологических станциях:
Партнеры нашего сайта:      
Пояснения к столбцам:
  • Ветер - указаны скорость ветра в м/с - средняя за 10 мин, порывы в срок и между сроками (в фигурных скобках) и направление, откуда дует ветер: С - северный,
  • СВ - северо-восточный, В - восточный, ЮВ - юго-восточный, Ю - южный, ЮЗ - юго-западный, З - западный, СЗ - северо-западный.
  • Видимость - горизонтальная дальность видимости в метрах или километрах. При видимости от 1 до 10 км при отсутствии осадков обычно наблюдается дымка, при ухудшении видимости до 1 км и менее - туман. В сухую погоду видимость может ухудшаться дымом, пылью или мглою.
  • Явления - указаны атмосферные явления, наблюдавшиеся в срок или в последний час перед сроком; фигурными скобками обозначены явления, наблюдавшиеся между сроками (за 1-3 часа до срока); квадратными скобками обозначены град или гололедные отложения с указанием их диаметра в мм.
  • Облачность - указаны через наклонную черту общая и нижняя облачность в баллах и высота нижней границы облаков в метрах; квадратными скобками обозначены формы облаков: Ci - перистые, Cs - перисто-слоистые, Cc - перисто-кучевые, Ac - высококучевые, As - высокослоистые, Sc - слоисто-кучевые, Ns - слоисто-дождевые, Cu - кучевые, Cb - кучево-дождевые. Подробнее классификацию облаков см. в Атласе облаков (PDF).
  • T - Температура воздуха - температура, измеренная на высоте 2 м над землей.
  • Td - Температура точки росы - температура, при понижении до которой содержащийся в воздухе водяной пар достигнет насыщения.
  • f - Относительная влажность воздуха - влажноcть воздуха, измеренная на высоте 2 м над землей.
  • Te - Эффективная температура - температура, которую ощущает одетый по сезону человек в тени. Характеристика душности погоды. При расчете учитывается влияние влажности воздуха и скорости ветра на теплоощущения человека.
  • Tes - Эффективная температура на солнце - температура, которую ощущает человек, с поправкой на солнечный нагрев. Характеристика знойности погоды. Зависит от высоты солнца над горизонтом, облачности и скорости ветра. Ночью, в пасмурную погоду, а также при ветре 12 м/с и более поправка равна нулю.
  • P - Атмосферное давление - приведенное к уровню моря атмосферное давление.
  • Po - Атмосферное давление - измеренное на уровне метеостанции атмосферное давление.
  • Tmin - Минимальная температура - минимум температуры воздуха на высоте 2 м над землей.
  • Tmax - Максимальная температура - максимум температуры воздуха на высоте 2 м над землей.
  • R - Количество осадков - Количество выпавших осадков за период времени, мм. При наведении курсора мыши на число - период времени, за который выпало указанное количество осадков.
  • R24 - Количество осадков - Количество выпавших осадков за 24 часа, мм.
  • S - Снежный покров - Высота снежного покрова, см. При наведении курсора мыши на число - состояние снежного покрова и степень покрытия местности в баллах.